Regional Weather Roundup
Issued by NWS

Home | Current Version | Previous Version | Text Only | Print | Product List | Glossary Off
Versions: 1 2 3 4 5 6 7 8 9 10 11 12 13 14 15 16 17 18 19 20 21 22 23 24 25 26 27 28 29 30 31 32 33 34 35 36 37 38 39 40 41 42 43 44 45 46 47 48 49 50

000
ASUS43 KLSX 230159
RWRMO

WEATHER SUMMARY FOR MISSOURI
NATIONAL WEATHER SERVICE SPRINGFIELD MO
900 PM CDT TUE APR 22 2014

NOTE: "FAIR" INDICATES FEW OR NO CLOUDS BELOW 12,000 FEET WITH NO
       SIGNIFICANT WEATHER AND/OR OBSTRUCTIONS TO VISIBILITY.
       CURRENT SKY AND/OR WEATHER CONDITIONS ARE NOT AVAILABLE FOR
       CHILLICOTHE AND FARMINGTON.

MOZ001>031-035>038-043-044-053-054-230300-
...NORTHERN AND WESTERN MISSOURI...

CITY           SKY/WX    TMP DP  RH WIND       PRES   REMARKS
KANSAS CTY INT PTCLDY    62  32  32 E8        30.00R
KANSAS C DTWN  CLEAR     63  32  31 E6        29.99R
LEE`S SUMMIT   CLEAR     61  32  33 E6        30.01R
ST JOSEPH      PTCLDY    60  34  37 E6        29.99S
KIRKSVILLE     CLEAR     54  33  45 NE3       30.02S

$$
MOZ066>068-077>081-088>096-101>105-230300-
...SOUTHWEST MISSOURI...

CITY           SKY/WX    TMP DP  RH WIND       PRES   REMARKS
SPRINGFIELD    CLEAR     55  39  54 CALM      29.99R
JOPLIN         CLEAR     58  36  43 NE3       29.99S

$$
MOZ032>034-039>042-045>050-055>058-069>072-230300-
...CENTRAL MISSOURI...

CITY           SKY/WX    TMP DP  RH WIND       PRES   REMARKS
COLUMBIA       CLEAR     56  36  47 NE7       30.01S
JEFFERSON CITY CLEAR     62  33  33 NE8       30.01R
ROLLA          CLEAR     53  34  48 N3        30.00R
SEDALIA        CLEAR     60  35  39 E3        30.02R
OSAGE BEACH    CLEAR     57  34  41 N3        30.02R

$$
MOZ051-052-059>065-230300-
...EAST CENTRAL MISSOURI...

CITY           SKY/WX    TMP DP  RH WIND       PRES   REMARKS
ST LOUIS INTL  PTCLDY    60  35  39 NW5       30.00R
SPIRIT OF STL  CLEAR     51  42  71 CALM      30.00R
ST CHARLES     CLEAR     58  34  40 NW3       29.99R

$$
MOZ072>076-082>087-097>100-106>115-230300-
...SOUTH CENTRAL AND SOUTHEAST MISSOURI...

CITY           SKY/WX    TMP DP  RH WIND       PRES   REMARKS
CAPE GIRARDEAU CLEAR     59  38  45 NE6       29.98R
FARMINGTON     CLEAR     59  34  38 NE6       30.02R
POPLAR BLUFF   CLEAR     61  41  47 NE6       29.96R
WEST PLAINS    CLEAR     60  30  32 N3        29.99R

$$



USA.gov is the U.S. government's official web portal to all federal, state and local government web resources and services.